Location: Madrid
(40.4000°N, 3.6830°W)
Time: 03:44:36
(UTC+02:00)

ISS - Pass Details

Date: 04 July 2020
Orbit: 417 x 421 km, 51.6° (Epoch: 09 July)

Event Time Altitude Azimuth Distance (km) Brightness Sun altitude
Exits shadow 04:55:54 17° 288° (WNW) 1,133 -1.8 -17.0°
Maximum altitude 04:57:41 27° 335° (NNW) 841 -2.0 -16.8°
Drops below altitude 10° 05:00:37 10° 35° (NE) 1,497 0.4 -16.5°
Sets 05:02:55 0° 48° (NE) 2,363 1.8 -16.2°
